Location: Beuerbach
(48.1459°N, 10.9174°E)
Time: 02:07:29
(UTC+00:00)

ADEOS II - Pass Details

Date: 23 May 2024
Orbit: 796 x 798 km, 98.7° (Epoch: 19 June)

Event Time Altitude Azimuth Distance (km) Brightness Sun altitude
Rises 01:12:34 0° 19° (NNE) 3,312 7.0 -16.2°
Reaches altitude 10° 01:15:00 10° 25° (NNE) 2,378 5.9 -16.0°
Maximum altitude 01:20:04 48° 99° (E) 1,042 2.8 -15.6°
Enters shadow 01:24:19 14° 170° (S) 2,076 3.8 -15.2°
